Location: Harbor Island
(32.3990°N, 80.4435°W)
Time: 05:19:10
(UTC-05:00)

Daily predictions for brighter satellites

Satellite Brightness Start Highest point End
(mag) Time Altitude Azimuth Time Altitude Azimuth Time Altitude Azimuth
Milstar 3 4.1 03:58:54 39° SE 03:58:54 39° SE 04:03:35 10° E
CZ-4C R/B 3.8 04:49:29 27° N 04:53:21 47° NE 05:01:03 10° SE
Cosmos 2278 Rocket 2.8 04:56:56 10° S 05:02:27 56° ESE 05:07:58 10° NNE
DELTA 2 R/B (1) 4.0 05:05:26 51° NNE 05:05:26 51° NNE 05:10:45 10° E
CZ-3 R/B 4.3 05:03:53 10° SSW 05:11:33 16° S 05:15:44 10° SE
Cosmos 2181 Rocket 4.3 05:06:09 10° N 05:12:21 65° E 05:18:25 10° SSE
Cosmos 1315 Rocket 4.3 05:11:30 29° NE 05:12:37 35° E 05:16:19 10° SSE
CZ-2C R/B 4.1 05:10:22 10° NE 05:14:31 31° E 05:18:43 10° SSE
Lacrosse 5 2.6 05:20:37 40° SSW 05:20:37 40° SSW 05:24:13 10° SSE
Feng Yun 1-1 Rocket 4.5 05:14:54 10° NNE 05:20:16 66° ESE 05:25:36 10° S
Tiangong 2 3.8 05:29:09 14° NNE 05:29:09 14° NNE 05:29:47 10° NE
Gbstr 26 Del rocket 4.4 05:23:41 16° SSW 05:27:58 54° SE 05:34:28 10° NE
Skynet4D Del rocket 4.4 05:32:58 32° SW 05:34:05 35° SSW 05:39:10 10° SE
Cosmos 1741 Rocket 3.9 05:30:13 14° SSW 05:34:48 68° WNW 05:40:01 10° N
COSMO-SKYMED 1 2.9 05:31:18 10° SSE 05:35:35 65° ENE 05:39:11 14° N
Okean 3 Rocket 3.4 05:37:43 49° NNW 05:38:50 74° W 05:43:10 10° S
Cosmos 1328 4.3 05:35:49 14° N 05:39:05 58° E 05:42:59 10° SSE
Meteor 1-16 Rocket 4.1 05:33:27 10° S 05:39:07 85° W 05:44:39 10° N
Cosmos 2082 Rocket 4.2 05:44:39 10° N 05:49:12 25° ENE 05:53:42 10° ESE
Okean-O 2.5 05:46:09 10° N 05:50:32 63° WNW 05:54:54 10° SSW
Meteor 2-8 Rocket 4.5 05:44:57 10° N 05:51:08 82° E 05:57:14 10° S
Cosmos 1626 2.6 05:49:19 10° N 05:53:00 60° E 05:56:41 10° SSE
SJ-12 4.5 05:52:33 10° NNE 05:56:38 60° E 06:00:43 10° S
ATLAS CENTAUR R/B 2.6 05:54:15 12° N 05:57:49 40° ENE 06:01:59 10° SE
COSMOS 2406 3.6 06:00:10 26° NW 06:02:43 39° WSW 06:07:55 10° S
Cosmos 1703 4.2 05:59:19 10° N 06:03:09 48° E 06:06:57 10° SSE
Cosmos 371 Rocket 3.2 06:00:05 14° NNW 06:04:18 70° WSW 06:09:09 10° S
Meteor 2-19 Rocket 4.3 05:58:46 10° SSW 06:04:48 70° W 06:10:50 10° N
Cosmos 2184 Rocket 3.9 05:58:48 10° SSW 06:04:58 68° W 06:11:16 10° N
Cosmos-2242 3.3 06:03:43 10° SSW 06:07:48 41° W 06:11:53 10° N
Cosmos 2297 3.8 06:03:47 10° SSW 06:09:31 84° ESE 06:15:15 10° NNE
Cosmos 2058 3.9 06:07:54 10° N 06:11:59 49° E 06:16:02 10° SSE
Radarsat Rocket 4.1 06:06:04 10° N 06:12:21 56° WNW 06:18:06 10° SSW
USA 102 3.8 06:11:22 10° SSE 06:14:12 69° ENE 06:18:03 10° NNW
IDEFIX/ARIANE 42P 3.0 06:10:08 10° N 06:14:59 39° WNW 06:19:49 10° SW
COSMOS 2441 4.3 06:10:36 10° N 06:15:22 69° WNW 06:20:09 10° SSW
Cosmos 1610 Rocket 4.5 06:10:44 10° S 06:17:01 80° W 06:23:24 10° N
Cosmos 1833 Rocket 3.7 06:12:25 10° N 06:17:50 46° ENE 06:23:14 10° SE
GPS 2-04 Rocket1 3.1 06:16:02 23° WNW 06:18:25 54° N 06:22:37 10° E
SL-14 R/B 4.5 06:19:26 20° W 06:19:26 20° W 06:22:15 10° SW
Cosmos 1484 Rocket 2.9 06:19:23 10° NNE 06:23:08 72° E 06:26:54 10° S
Thor Agena Rocket 4.5 06:18:33 10° SSE 06:23:34 51° ENE 06:28:40 10° N
Abrixas rocket 4.1 06:21:08 11° NNW 06:23:35 22° NNE 06:26:13 10° E
SKYMED 2 4.3 06:19:51 10° SSW 06:23:41 31° W 06:27:33 10° NW
Cosmos 1408 Rocket 3.8 06:19:50 10° NNW 06:24:04 48° W 06:28:18 10° SSW
Cosmos 2208 Rocket 4.1 06:18:47 10° NNW 06:24:13 68° WSW 06:29:36 10° S
SL-8 R/B 3.9 06:20:19 13° WSW 06:24:29 53° NW 06:29:12 10° NE
EO 1 Del DPAF 3.6 06:22:49 10° S 06:26:25 41° W 06:30:03 10° NNW
Cosmos 2151 3.2 06:23:55 10° N 06:28:13 75° E 06:32:28 10° S
Shenzhou-11 Module 4.5 06:27:14 10° NNW 06:28:23 12° N 06:29:31 10° NNE
USA 229 DEB 4.1 06:22:45 10° WSW 06:28:59 39° NW 06:35:22 10° NNE
USA 229 4.1 06:22:50 10° WSW 06:29:04 39° NW 06:35:29 10° NNE
Nadezhda 3 Rocket 4.3 06:23:05 10° N 06:29:25 73° E 06:35:40 10° SSE
CZ-4 R/B 2.8 06:27:12 10° NNE 06:31:03 41° E 06:34:49 10° S
NOSS 3-1 (A) 3.4 06:25:48 10° SSW 06:31:20 81° ESE 06:37:29 10° NNE
Cosmos 1500 Rocket 3.7 06:32:39 10° N 06:37:04 79° E 06:41:24 10° S
SL-27 R/B 2.5 06:34:39 10° NNW 06:38:17 65° WSW 06:41:52 10° S
Cosmos 468 Rocket 4.0 06:34:43 10° NNW 06:39:54 75° WSW 06:45:07 10° S
Milstar 3 3.1 06:32:52 10° W 06:40:08 64° S 06:46:50 10° E
CZ-4C R/B 3.7 06:35:05 10° NW 06:41:53 36° WSW 06:49:05 10° S
Cosmos 1814 Rocket 4.4 06:37:23 10° N 06:42:34 68° ENE 06:47:39 10° SSE
Cosmos 2221 2.6 06:42:00 10° S 06:46:15 81° E 06:50:32 10° N
Cosmos 2278 Rocket 3.6 06:43:12 10° W 06:46:51 17° WNW 06:50:30 10° NNW
Cosmos 841 Rocket 4.4 06:42:14 10° N 06:47:14 49° ENE 06:52:11 10° SE
MSX 4.4 06:42:21 10° N 06:47:28 34° WNW 06:52:34 10° SW
Cosmos 1300 4.0 06:43:57 10° SSE 06:47:36 45° E 06:51:16 10° NNE
CORIOLIS 4.4 06:42:46 10° NNE 06:48:11 77° ESE 06:53:36 10° S
Cosmos 1743 Rocket 3.7 06:47:09 10° NNW 06:51:20 50° W 06:55:32 10° SSW
DELTA 2 R/B (1) 3.9 06:46:21 10° WNW 06:51:51 60° SSW 06:57:21 10° SE
Cosmos 1174 3.3 06:48:40 10° NNW 06:52:25 82° WSW 06:55:33 10° SSE
CZ-2C R/B 3.5 06:49:10 10° NNW 06:52:31 20° WNW 06:55:56 10° WSW
AQUARIUS 4.1 06:49:01 10° N 06:53:30 68° WNW 06:57:57 10° SSW
Cosmos 1763 Rocket 3.5 06:52:12 10° NNW 06:57:19 89° WSW 07:02:27 10° SSE
Cosmos 1486 Rocket 4.1 06:52:04 10° SSW 06:57:19 61° WNW 07:02:36 10° N
CSL-04 Rocket 3.6 06:52:21 10° N 06:57:40 68° WNW 07:02:54 10° SSW
ALOS 3.9 06:55:30 10° NNE 06:59:54 40° E 07:04:17 10° SSE
Cosmos 304 Rocket 3.9 06:55:19 10° NNW 07:00:00 56° WSW 07:04:40 10° S
